Clear Lake Weather Center

Moon Phase Calendar



Clear Lake Water Level
Online Cameras

 


      

Current Conditions in Soda Bay
7/21/2024 4:16:56 PM

98°F
Feels Like 97
Clear
Humidity
27%
Pressure
29.77"
Wind
12.2 mph (WSW)
Dew Point
58°F
UV Index
6/10 (High)
Visibility
6 mi

Hourly Forecast

Date & Time Sun, Jul 21
4:00 PM
Sun, Jul 21
5:00 PM
Sun, Jul 21
6:00 PM
Sun, Jul 21
7:00 PM
Sun, Jul 21
8:00 PM
Sun, Jul 21
9:00 PM
Sun, Jul 21
10:00 PM
Sun, Jul 21
11:00 PM
Mon, Jul 22
12:00 AM
Mon, Jul 22
1:00 AM
Mon, Jul 22
2:00 AM
Mon, Jul 22
3:00 AM
Mon, Jul 22
4:00 AM
Mon, Jul 22
5:00 AM
Mon, Jul 22
6:00 AM
Mon, Jul 22
7:00 AM
Mon, Jul 22
8:00 AM
Mon, Jul 22
9:00 AM
Mon, Jul 22
10:00 AM
Mon, Jul 22
11:00 AM
Mon, Jul 22
12:00 PM
Mon, Jul 22
1:00 PM
Mon, Jul 22
2:00 PM
Mon, Jul 22
3:00 PM
Mon, Jul 22
4:00 PM
Mon, Jul 22
5:00 PM
Mon, Jul 22
6:00 PM
Mon, Jul 22
7:00 PM
Mon, Jul 22
8:00 PM
Mon, Jul 22
9:00 PM
Mon, Jul 22
10:00 PM
Mon, Jul 22
11:00 PM
Tue, Jul 23
12:00 AM
Tue, Jul 23
1:00 AM
Tue, Jul 23
2:00 AM
Tue, Jul 23
3:00 AM
Tue, Jul 23
4:00 AM
Tue, Jul 23
5:00 AM
Tue, Jul 23
6:00 AM
Tue, Jul 23
7:00 AM
Tue, Jul 23
8:00 AM
Tue, Jul 23
9:00 AM
Tue, Jul 23
10:00 AM
Tue, Jul 23
11:00 AM
Tue, Jul 23
12:00 PM
Tue, Jul 23
1:00 PM
Tue, Jul 23
2:00 PM
Tue, Jul 23
3:00 PM
Condition
Clear

Clear

Clear

Clear

Clear

Clear

Clear

Clear

Clear

Clear

Clear

Clear

Clear

Clear

Clear

Clear

Clear

Clear

Clear

Clear

Clear

Clear

Clear

Clear

Clear

Clear

Clear

Clear

Clear

Clear

Clear

Clear

Clear

Clear

Clear

Clear

Clear

Clear

Clear

Clear

Clear

Clear

Clear

Clear

Clear

Clear

Clear

Clear
Temperature 98°F98°F97°F94°F85°F73°F70°F68°F68°F68°F67°F68°F68°F68°F68°F71°F81°F89°F95°F99°F102°F104°F105°F105°F105°F103°F100°F96°F88°F80°F77°F76°F75°F75°F75°F75°F76°F75°F74°F77°F86°F93°F98°F102°F104°F105°F106°F105°F
Feels Like 97°F97°F95°F92°F84°F72°F69°F68°F68°F67°F67°F67°F67°F67°F67°F70°F80°F86°F91°F95°F97°F99°F100°F101°F100°F98°F95°F92°F85°F79°F76°F75°F74°F74°F74°F74°F74°F74°F73°F76°F83°F89°F94°F97°F100°F101°F101°F101°F
Cloudiness 0%0%0%0%0%0%0%0%0%0%0%1%1%1%6%3%3%3%2%2%0%0%0%0%0%0%0%0%0%0%0%0%0%0%0%0%1%2%8%7%5%4%3%2%0%0%0%0%
Visibility 6 mi6 mi6 mi6 mi6 mi6 mi6 mi6 mi6 mi6 mi6 mi6 mi6 mi6 mi6 mi6 mi6 mi6 mi6 mi6 mi6 mi6 mi6 mi6 mi6 mi6 mi6 mi6 mi6 mi6 mi6 mi6 mi6 mi6 mi6 mi6 mi6 mi6 mi6 mi6 mi6 mi6 mi6 mi6 mi6 mi6 mi6 mi6 mi
Precipitation 0%0%0%0%0%0%0%0%0%0%0%0%0%0%0%0%0%0%0%0%0%0%0%0%0%0%0%0%0%0%0%0%0%0%0%0%0%0%0%0%0%0%0%0%0%0%0%0%
Humidity 27%25%24%26%36%49%56%59%60%61%60%58%56%54%53%47%34%25%18%14%12%12%12%12%12%12%14%16%24%31%36%37%38%37%36%35%34%34%34%33%25%20%16%14%13%13%13%13%
Dew Point 58°F56°F54°F54°F55°F51°F52°F52°F52°F52°F51°F50°F49°F49°F48°F48°F48°F47°F43°F40°F39°F40°F41°F41°F41°F41°F40°F41°F45°F45°F46°F46°F46°F46°F45°F44°F43°F43°F42°F44°F45°F45°F43°F42°F43°F43°F43°F43°F
Pressure 29.77"29.77"29.77"29.8"29.83"29.83"29.85"29.85"29.83"29.83"29.83"29.83"29.83"29.83"29.85"29.85"29.85"29.85"29.83"29.83"29.8"29.8"29.77"29.77"29.77"29.74"29.77"29.77"29.8"29.8"29.83"29.83"29.83"29.83"29.83"29.83"29.83"29.83"29.85"29.85"29.85"29.88"29.85"29.85"29.85"29.85"29.85"29.85"
Wind Speed 12.2 mph12.8 mph10.7 mph6.7 mph5.1 mph3.9 mph4.3 mph3.7 mph3.4 mph2.2 mph1.6 mph1.9 mph2.4 mph2.6 mph2.9 mph3 mph2.8 mph3.3 mph3.6 mph5.1 mph6.2 mph7 mph8 mph9.4 mph10.7 mph12 mph11.7 mph7.4 mph4.8 mph4.7 mph3.4 mph2.4 mph2 mph1.7 mph1.7 mph2.2 mph2 mph1.8 mph2.6 mph2.6 mph2.4 mph3.1 mph4.3 mph5.2 mph6.7 mph8.4 mph10.6 mph10.9 mph
Wind
Direction
248°
WSW
254°
WSW
263°
W
269°
W
266°
W
282°
WNW
307°
NW
310°
NW
316°
NW
321°
NW

N
37°
NE
50°
NE
50°
NE
54°
NE
59°
ENE
79°
E
103°
ESE
119°
ESE
141°
SE
162°
SSE
183°
S
200°
SSW
211°
SSW
221°
SW
229°
SW
236°
SW
237°
WSW
256°
WSW
288°
WNW
306°
NW
320°
NW
336°
NNW
358°
N

N
357°
N
15°
NNE
60°
ENE
63°
ENE
76°
ENE
89°
E
124°
SE
144°
SE
160°
SSE
183°
S
203°
SSW
215°
SW
223°
SW

Daily Forecast

Date High Low Precip. Humidity
Today
Jul 21

Clear
100 °F
60 °F
0%
20%
Monday
Jul 22

Clear
105 °F
67 °F
0%
12%
Tuesday
Jul 23

Clear
106 °F
74 °F
0%
13%
Wednesday
Jul 24

Rain
103 °F
73 °F
100%
20%
Thursday
Jul 25

Clear
102 °F
68 °F
0%
10%
Friday
Jul 26

Clear
96 °F
57 °F
0%
11%
Saturday
Jul 27

Clear
94 °F
55 °F
0%
12%
Sunday
Jul 28

Clear
95 °F
59 °F
0%
14%
Monday
Jul 29

Clear
94 °F
58 °F
0%
16%
Tuesday
Jul 30

Clear
93 °F
56 °F
0%
16%
Wednesday
Jul 31

Clear
100 °F
59 °F
0%
11%
Thursday
Aug 1

Clear
100 °F
61 °F
0%
12%
Friday
Aug 2

Clear
100 °F
61 °F
0%
11%
Saturday
Aug 3

Clear
103 °F
63 °F
0%
10%
Sunday
Aug 4

Rain
100 °F
68 °F
20%
11%
Monday
Aug 5

Clear
104 °F
71 °F
0%
12%

Temperature 8-14 Day Outlook



Precipitation 8-14 Day Outlook






About Us
Contact Us
Site Map
Search Site
Advertise With Us
   
Clear.USLakes.info
THE CLEAR LAKE WEBSITE

Copyright 2024, Lakes Online
Privacy    |    Legal